Location: Alta
(39.2070°N, 120.8111°W)
Time: 07:13:08
(UTC+00:00)

ITAMSAT 1 - Pass Details

Date: 07 June 2024
Orbit: 781 x 796 km, 98.8° (Epoch: 20 June)

Event Time Altitude Azimuth Distance (km) Brightness Sun altitude
Exits shadow 04:06:12 - 149° (SSE) 2,653 9.8 -7.1°
Reaches altitude 10° 04:07:00 10° 147° (SSE) 2,340 9.5 -7.2°
Maximum altitude 04:12:00 52° 72° (ENE) 968 8.0 -8.0°
Drops below altitude 10° 04:17:01 10° 357° (N) 2,347 10.8 -8.7°
Sets 04:19:23 0° 352° (N) 3,278 11.7 -9.1°
